Flag for Mexico Weather past 2 weeks in Guadalajara, Jalisco, Mexico

Now
72 °F

Mostly cloudy.


Feels Like: 75 °F
Forecast: 56 / 80 °F
Wind: 7 mph from Northwest

Location: Don Miguel / Guadalaj

Current Time: Jul 28, 2014 at 8:35:54 PM

Latest Report: Jul 28, 2014 at 7:51 PM


Visibility: 8 mi

Pressure: 30.18 "Hg

Humidity: 69%

Dew point: 61 °F

Location of GuadalajaraLocation

Historic Weather in Guadalajara — Graph

°F

Guadalajara temperature yesterday

Maximum temperature yesterday: 84 °F (at 3:49 PM)
Minimum temperature yesterday: 63 °F (at 6:50 AM)
Average temperature yesterday: 71 °F

Past Weeks' High & Low Weather Summary

 TemperatureHumidityPressure
High86 °F (Jul 21, 4:49 PM)94% (Jul 14, 5:53 AM)30.32 "Hg (Jul 14, 5:53 AM)
Low57 °F (Jul 14, 5:09 AM)27% (Jul 23, 4:55 PM)29.78 "Hg (Jul 22, 6:48 PM)
Average69 °F69%30.10 "Hg
* Reported Jul 13 6:50 PM — Jul 28 6:53 PM, Guadalajara, Weather by CustomWeather, © 2014

Note: Actual official high and low records may vary slightly from our data, if they occured in-between our weather recording intervals... More about our weather records

Advertising

Guadalajara weather history for previous 24 hours

 ConditionsComfort  
Time TempWeatherWind HumidityBarometerVisibility
6:53 PM
Jul 28
77 °FMostly cloudy.6 mph47%29.89 "Hg8 mi
2:45 PM81 °FPartly sunny.12 mph39%30.25 "Hg8 mi
12:48 PM77 °FPartly sunny.No wind54%29.98 "Hg7 mi
11:48 AM75 °FScattered clouds.5 mph61%30.31 "Hg7 mi
10:50 AM72 °FSunny.No wind65%30.32 "Hg5 mi
9:49 AM66 °FPartly sunny.No wind78%30.04 "Hg3 mi
8:50 AM64 °FSunny.No wind78%30.30 "Hg3 mi
7:51 AM59 °FPassing clouds.No wind88%30.29 "Hg5 mi
6:54 AM57 °FPassing clouds.2 mph94%30.02 "Hg7 mi
5:49 AM59 °FPartly cloudy.5 mph88%30.26 "Hg8 mi
4:53 AM61 °FPartly cloudy.6 mph88%30.25 "Hg8 mi
3:49 AM63 °FPartly cloudy.5 mph88%29.91 "Hg8 mi
3:14 AM64 °FPartly cloudy.2 mph83%30.24 "Hg8 mi
1:55 AM64 °FPartly cloudy.15 mph83%30.26 "Hg8 mi
12:50 AM66 °FPartly cloudy.10 mph78%29.98 "Hg8 mi
10:54 PM
Jul 27
64 °FPartly cloudy.No wind78%30.27 "Hg8 mi
9:46 PM64 °FPartly cloudy.8 mph78%29.95 "Hg8 mi
8:51 PM68 °FCloudy.6 mph73%30.19 "Hg8 mi
Weather by CustomWeather, © 2014

See weather overviewHow to use our weather pages